;H (mm);Q (m3/s);stage (m)
;;;
2/3/2014 19:30;0.00;1.40;0.181
2/3/2014 19:45;0.22;1.45;
2/3/2014 20:00;0.21;1.51;
2/3/2014 20:15;0.42;1.58;0.192
2/3/2014 20:30;0.19;1.68;0.198
2/3/2014 20:45;0.04;1.56;0.191
2/3/2014 21:00;0.05;1.48;0.186
2/3/2014 21:15;0.30;1.48;
2/3/2014 21:30;0.51;1.48;0.186
2/3/2014 21:45;0.91;1.59;0.193
2/3/2014 22:00;1.02;1.59;0.193
2/3/2014 22:15;1.18;1.89;0.209
2/3/2014 22:30;0.25;2.07;0.218
2/3/2014 22:45;0.00;1.70;0.199
2/3/2014 23:00;0.04;1.81;0.205
2/3/2014 23:15;0.08;1.82;
2/3/2014 23:30;0.14;1.83;0.206
2/3/2014 23:45;0.00;1.71;
3/3/2014 00:00;0.00;1.60;
3/3/2014 00:15;0.00;1.49;0.187
3/3/2014 00:30;0.00;1.72;0.2
3/3/2014 00:45;0.00;1.63;0.195
3/3/2014 01:00;0.19;1.53;0.189
3/3/2014 01:15;0.00;1.53;0.189
3/3/2014 01:30;0.00;1.53;0.189
3/3/2014 01:45;0.38;1.63;
3/3/2014 02:00;1.91;1.74;
3/3/2014 02:15;6.37;1.85;0.207
3/3/2014 02:30;3.33;3.01;0.257
3/3/2014 02:45;2.93;5.91;0.338
3/3/2014 03:00;2.16;7.28;0.366
3/3/2014 03:15;1.33;4.02;0.29
3/3/2014 03:30;0.31;4.02;0.29
3/3/2014 03:45;0.82;4.30;0.298
3/3/2014 04:00;1.12;6.05;0.341
3/3/2014 04:15;0.63;4.78;0.311
3/3/2014 04:30;0.77;9.29;0.397
3/3/2014 04:45;0.23;7.20;
3/3/2014 05:00;0.21;5.64;0.332
3/3/2014 05:15;0.03;5.70;
3/3/2014 05:30;0.27;5.76;
3/3/2014 05:45;0.00;5.82;0.336
3/3/2014 06:00;0.00;4.94;0.315
3/3/2014 06:15;0.01;4.80;
3/3/2014 06:30;0.32;4.66;0.308
3/3/2014 06:45;1.28;5.38;0.326
3/3/2014 07:00;1.16;6.09;0.342
3/3/2014 07:15;0.63;7.28;0.366
3/3/2014 07:30;0.24;6.47;0.35
3/3/2014 07:45;0.18;6.81;0.357
3/3/2014 08:00;0.12;7.12;0.363
3/3/2014 08:15;0.06;5.43;0.327
3/3/2014 08:30;0.14;5.86;0.337
3/3/2014 08:45;1.14;7.02;0.361
3/3/2014 09:00;1.50;5.03;
3/3/2014 09:15;1.80;3.50;0.274
3/3/2014 09:30;2.27;5.86;0.337
3/3/2014 09:45;0.72;8.56;0.389
3/3/2014 10:00;1.03;11.75;0.457
3/3/2014 10:15;0.22;11.02;0.44
3/3/2014 10:30;0.06;9.48;0.402
3/3/2014 10:45;0.02;7.68;
3/3/2014 11:00;0.20;6.23;0.345
3/3/2014 11:15;0.21;6.05;0.341
3/3/2014 11:30;0.07;5.95;0.339
3/3/2014 11:45;0.43;5.26;0.323
3/3/2014 12:00;0.36;6.09;
3/3/2014 12:15;1.07;7.02;0.361
3/3/2014 12:30;1.17;7.33;
3/3/2014 12:45;1.11;7.65;0.373
3/3/2014 13:00;2.60;10.98;0.439
3/3/2014 13:15;1.84;8.53;
3/3/2014 13:30;0.16;5.91;0.338
3/3/2014 13:45;0.37;6.42;0.349
3/3/2014 14:00;0.03;10.94;0.438
3/3/2014 14:15;0.03;13.00;
3/3/2014 14:30;0.00;15.26;0.531
3/3/2014 14:45;0.03;14.51;
3/3/2014 15:00;0.00;13.78;0.501
3/3/2014 15:15;0.00;10.94;0.438
3/3/2014 15:30;0.00;7.76;0.375
3/3/2014 15:45;0.00;10.64;0.431
3/3/2014 16:00;0.00;9.32;0.398
3/3/2014 16:15;0.00;8.56;0.389
3/3/2014 16:30;0.00;6.52;0.351
3/3/2014 16:45;0.00;5.73;0.334
3/3/2014 17:00;0.49;5.51;0.329
3/3/2014 17:15;0.95;5.64;0.332
3/3/2014 17:30;0.00;5.01;
3/3/2014 17:45;0.00;4.44;0.302
3/3/2014 18:00;0.00;6.14;0.343
3/3/2014 18:15;0.00;4.19;0.295
3/3/2014 18:30;0.00;4.19;0.295
3/3/2014 18:45;0.00;3.75;0.282
3/3/2014 19:00;0.00;4.22;0.296
3/3/2014 19:15;0.00;3.95;0.288
3/3/2014 19:30;0.00;3.82;0.284
3/3/2014 19:45;0.00;3.38;0.27
3/3/2014 20:00;0.00;4.44;0.302
3/3/2014 20:15;0.00;4.19;0.295
